RH
68 77 83 82 85 84 83 77 81 82 80 78 80 80 88 92 94 92 91 93 85 77 80 79 80 79 83 83 83 80 79 77 75
66 69 75 80 83 82 83 83 80 82 82 79 80 86 92 94 94 94 93 93 81 75 75 80 78 78 83 82 82 79 77 76 76
72 78 82 83 83 82 82 84 82 80 81 79 84 90 94 90 92 91 93 88 79 72 72 80 78 78 83 82 82 78 77 75 75
77 84 85 82 79 80 80 82 84 83 81 83 86 92 94 96 94 88 94 92 75 69 77 80 81 79 80 85 83 82 79 76 76
84 83 85 84 87 85 83 82 84 85 86 86 89 92 94 96 96 95 95 82 75 80 78 77 82 79 80 81 82 82 78 79 80
93 84 85 83 86 88 87 87 89 88 91 90 91 93 98 96 97 97 91 82 71 76 80 76 81 81 80 81 82 81 80 76 80
85 88 84 81 82 86 88 90 93 96 98 98 96 99 97 98 98 96 90 85 74 73 77 84 90 83 84 89 85 81 82 78 81
90 93 91 92 87 93 91 92 94 97 99 99 99 98 97 99 99 97 91 83 72 70 74 82 86 89 90 82 91 89 82 81 83
96 94 97 97 96 96 96 96 89 88 90 92 98 96 99 99 99 99 93 85 79 80 75 88 92 85 83 84 76 82 89 82 82
94 92 95 94 95 96 97 96 94 92 88 85 89 90 94 98 99 99 96 91 84 83 83 84 90 93 87 85 82 83 85 89 83
92 92 90 90 92 93 95 96 96 92 89 85 83 83 86 93 96 99 99 94 90 85 83 83 88 93 93 92 89 82 87 88 86
93 93 92 91 90 89 90 91 90 90 85 89 87 89 88 91 92 96 96 97 97 93 86 85 87 89 90 93 93 90 87 86 90
90 91 92 90 87 87 90 90 88 88 93 93 96 98 90 90 91 90 92 94 95 96 93 90 86 86 87 87 88 90 90 89 87
85 88 90 88 88 86 89 90 96 92 92 88 87 87 92 92 86 87 87 88 92 94 94 94 93 90 88 86 82 86 87 88 88
77 78 80 83 83 84 86 88 88 95 98 81 90 88 79 83 88 89 83 85 87 90 91 95 94 90 89 89 84 85 83 87 87
73 76 76 78 74 81 80 89 90 87 91 90 89 96 82 77 80 82 86 85 84 84 88 92 95 95 93 91 91 87 82 86 87
67 76 77 77 77 73 75 87 87 84 91 98 97 94 91 89 78 84 77 85 86 86 82 85 86 92 94 93 90 88 90 83 80
75 73 74 76 78 82 80 83 91 92 85 89 96 92 97 94 86 90 85 88 88 88 84 84 83 87 91 91 90 84 86 86 85
76 73 73 75 77 77 75 72 85 92 94 89 78 89 86 95 96 88 88 89 86 91 88 87 84 86 89 84 86 82 80 82 82
74 73 71 73 77 75 76 76 78 84 86 96 94 90 88 83 91 95 85 92 89 91 91 92 92 88 90 85 84 81 78 77 78
Wind_Speed
7 10 11 12 12 11 6 4 4 3 2 3 4 3 3 2 1 3 4 5 6 10 9 10 9 10 10 13 14 14 15 15 14
5 5 7 7 7 9 9 5 5 5 4 3 5 3 4 2 2 3 4 5 11 13 11 12 12 13 12 13 13 14 14 14 13
6 7 8 10 10 10 11 10 6 4 4 4 4 3 3 3 3 4 4 8 10 10 11 13 13 14 14 14 15 15 14 14 13
9 11 14 10 7 8 8 9 9 7 6 4 4 3 3 2 3 3 2 7 10 8 10 12 13 14 15 14 14 15 14 14 14
10 10 13 15 14 14 8 7 8 9 8 7 5 4 3 2 3 3 2 6 9 5 11 11 13 13 13 13 13 13 13 12 14
8 9 12 13 15 14 13 12 10 6 7 9 9 6 2 2 2 2 7 9 8 10 9 10 8 9 10 11 10 12 14 12 13
8 8 11 13 15 15 13 12 12 8 3 3 6 3 4 3 3 1 8 8 11 9 9 14 8 4 6 2 8 10 12 12 12
4 4 5 6 12 5 7 6 5 6 4 4 3 3 3 3 3 5 7 6 5 4 6 11 15 14 11 14 13 13 9 10 12
5 4 5 4 4 5 6 4 6 7 7 7 5 4 3 3 1 4 9 8 8 10 2 3 10 18 19 17 16 12 8 11 11
4 4 4 4 4 5 4 5 5 6 7 7 6 7 6 4 2 1 5 7 7 8 10 11 3 6 5 4 1 12 15 12 12
4 4 5 5 5 4 4 4 4 4 4 6 7 6 6 7 5 2 3 6 6 8 7 9 11 7 5 4 7 8 8 3 8
5 4 4 4 4 5 5 5 5 4 5 5 6 5 5 6 7 7 4 3 5 6 8 5 7 7 8 10 3 5 8 7 6
5 5 5 5 5 5 4 5 5 5 5 4 4 4 8 10 9 9 9 8 8 13 16 7 4 2 3 5 9 7 5 9 13
5 4 4 5 4 5 5 5 4 4 5 5 7 7 7 8 7 10 11 10 9 7 14 21 20 11 4 7 15 18 16 11 12
5 4 5 4 4 5 4 4 4 3 4 4 6 6 6 7 8 8 8 9 10 10 10 9 10 20 19 13 5 7 8 21 17
5 4 5 4 6 4 6 3 5 7 7 3 2 4 6 9 8 6 7 10 10 10 9 7 6 6 15 18 17 16 9 7 9
5 5 5 6 5 7 8 6 4 4 6 3 1 3 2 5 7 6 7 9 7 9 10 9 9 7 6 12 21 20 20 11 6
5 6 5 5 4 4 4 5 6 4 3 6 2 3 1 2 3 6 6 7 6 6 7 9 9 9 7 11 15 21 19 18 19
5 5 5 5 3 5 4 4 4 3 4 3 4 3 1 2 3 2 3 4 5 5 5 6 7 8 6 11 16 19 18 18 17
5 5 5 5 4 4 5 5 5 3 2 3 2 3 2 2 1 3 1 3 2 3 4 4 4 7 7 6 11 18 18 16 18
Wind_Direction
323 341 342 331 333 329 298 322 332 276 292 278 255 265 286 266 263 246 218 227 238 217 203 186 182 193 181 158 152 146 136 137 139
340 330 319 318 318 336 351 327 343 327 297 278 275 293 306 274 225 236 234 230 251 224 210 194 190 196 186 172 162 149 146 146 147
30 20 3 3 355 354 350 350 345 334 309 297 289 281 293 297 236 220 241 248 251 214 224 206 195 195 196 183 171 159 158 158 160
30 22 20 32 4 350 335 340 348 345 337 320 297 281 286 277 269 226 239 262 232 213 228 212 201 197 200 195 178 169 167 167 166
38 31 27 23 15 17 11 346 340 342 346 352 344 321 299 263 279 278 271 277 247 241 261 225 212 197 195 196 189 175 172 172 173
22 32 33 35 30 19 15 18 4 17 15 10 7 358 333 319 290 294 287 282 256 239 229 237 197 182 198 191 195 189 179 179 184
30 28 33 35 35 27 21 21 24 18 4 353 18 15 1 351 341 354 319 317 286 258 242 195 169 226 164 189 250 221 190 180 189
17 18 19 18 18 6 8 16 16 12 20 6 360 351 13 11 14 8 352 336 309 297 232 213 187 191 227 190 196 250 229 197 199
15 24 18 20 3 12 7 1 11 19 14 20 5 332 325 307 298 311 9 41 43 74 184 258 256 201 208 209 205 203 248 262 224
26 17 19 21 5 15 4 15 21 10 11 17 20 11 6 2 339 17 341 29 58 65 81 48 299 147 118 62 49 210 202 227 254
35 24 17 17 7 360 9 1 22 15 2 7 8 6 3 359 356 353 346 345 30 46 53 68 67 89 174 326 347 3 29 298 281
43 41 25 11 2 3 7 12 18 19 16 20 1 355 19 4 1 6 359 8 24 27 25 57 87 56 16 315 193 327 332 342 300
40 45 26 10 9 6 23 9 31 1 13 11 8 5 45 48 31 27 25 19 18 37 27 7 29 350 265 280 281 262 249 284 295
59 50 29 17 29 23 10 21 15 15 4 17 48 52 45 41 46 45 37 31 28 25 23 43 46 32 310 280 280 253 252 240 260
57 57 43 27 34 25 16 32 18 4 350 47 45 29 52 59 45 36 41 38 36 31 25 29 24 34 39 27 12 355 272 245 230
48 54 49 34 55 33 18 3 29 23 359 17 39 49 51 52 41 39 36 31 33 35 33 31 22 16 17 23 25 20 0 280 266
54 55 49 37 42 33 25 24 10 21 14 32 351 20 352 47 50 32 38 35 28 30 32 30 26 21 13 12 14 17 13 22 303
60 58 58 50 48 54 41 29 39 11 353 28 56 31 17 323 66 37 42 27 30 26 25 24 18 14 14 10 10 13 15 23 29
61 62 53 60 52 45 28 33 43 52 27 340 11 24 348 356 339 105 71 58 30 29 29 15 12 14 11 14 8 14 18 18 29
57 63 55 45 43 39 44 32 29 40 66 37 351 358 332 22 323 314 37 70 45 42 38 16 7 10 0 2 7 13 19 17 24